TimeMST,TemperatureF,Dew PointF,Humidity,Sea Level PressureIn,VisibilityMPH,Wind Direction,Wind SpeedMPH,Gust SpeedMPH,PrecipitationIn,Events,Conditions,WindDirDegrees,DateUTC
12:15 AM,8.6,8.6,100,29.94,10.0,NE,3.5,-,N/A,,Overcast,50,2013-12-22 07:15:00
12:35 AM,10.4,10.4,100,29.95,10.0,Calm,Calm,-,N/A,,Overcast,0,2013-12-22 07:35:00
12:55 AM,12.2,10.4,92,29.95,10.0,NNE,3.5,-,N/A,,Overcast,30,2013-12-22 07:55:00
1:35 AM,12.2,10.4,92,29.94,10.0,Calm,Calm,-,N/A,,Overcast,0,2013-12-22 08:35:00
1:55 AM,14.0,12.2,93,29.95,10.0,Calm,Calm,-,N/A,,Overcast,0,2013-12-22 08:55:00
2:15 AM,12.2,10.4,92,29.95,10.0,Calm,Calm,-,N/A,,Overcast,0,2013-12-22 09:15:00
2:35 AM,12.2,12.2,100,29.96,10.0,East,3.5,-,N/A,,Overcast,100,2013-12-22 09:35:00
2:55 AM,14.0,12.2,93,29.96,10.0,Calm,Calm,-,N/A,,Overcast,0,2013-12-22 09:55:00
3:15 AM,15.8,12.2,86,29.96,10.0,NNW,8.1,-,N/A,,Overcast,340,2013-12-22 10:15:00
3:35 AM,15.8,12.2,86,29.96,10.0,North,5.8,-,N/A,,Overcast,10,2013-12-22 10:35:00
3:55 AM,17.6,14.0,86,29.96,10.0,Calm,Calm,-,N/A,,Overcast,0,2013-12-22 10:55:00
4:15 AM,15.8,14.0,93,29.96,10.0,North,3.5,-,N/A,,Overcast,350,2013-12-22 11:15:00
4:35 AM,17.6,15.8,93,29.95,10.0,Calm,Calm,-,N/A,,Overcast,0,2013-12-22 11:35:00
4:55 AM,19.4,15.8,86,29.96,10.0,Calm,Calm,-,N/A,,Overcast,0,2013-12-22 11:55:00
5:15 AM,19.4,15.8,86,29.97,10.0,South,5.8,-,N/A,,Overcast,190,2013-12-22 12:15:00
5:35 AM,19.4,15.8,86,29.97,10.0,NNW,4.6,-,N/A,,Overcast,340,2013-12-22 12:35:00
5:55 AM,15.8,14.0,93,29.97,10.0,North,4.6,-,N/A,,Overcast,360,2013-12-22 12:55:00
6:15 AM,15.8,14.0,93,29.98,10.0,North,4.6,-,N/A,,Overcast,360,2013-12-22 13:15:00
6:35 AM,17.6,14.0,86,29.98,10.0,South,3.5,-,N/A,,Overcast,180,2013-12-22 13:35:00
6:51 AM,21.2,17.6,86,29.98,10.0,South,10.4,-,N/A,,Mostly Cloudy,180,2013-12-22 13:51:00
7:51 AM,21.2,17.6,86,29.99,10.0,South,12.7,-,N/A,,Mostly Cloudy,180,2013-12-22 14:51:00
8:51 AM,23.0,17.6,80,30.00,10.0,SSW,10.4,-,N/A,,Mostly Cloudy,200,2013-12-22 15:51:00
9:51 AM,24.8,17.6,74,30.01,10.0,SSW,10.4,-,N/A,,Mostly Cloudy,200,2013-12-22 16:51:00
10:51 AM,24.8,17.6,74,30.04,10.0,South,11.5,-,N/A,,Mostly Cloudy,190,2013-12-22 17:51:00
11:51 AM,26.6,19.4,74,30.03,10.0,SSE,13.8,19.6,N/A,,Mostly Cloudy,160,2013-12-22 18:51:00
12:51 PM,26.6,19.4,74,30.02,10.0,SSE,15.0,-,N/A,,Mostly Cloudy,160,2013-12-22 19:51:00
1:53 PM,26.6,19.4,74,30.03,10.0,SSE,10.4,17.3,N/A,,Mostly Cloudy,150,2013-12-22 20:53:00
2:28 PM,28.4,19.4,69,30.03,10.0,Calm,Calm,-,N/A,Snow,Light Snow,0,2013-12-22 21:28:00
2:51 PM,28.4,19.4,69,30.04,10.0,SW,10.4,21.9,N/A,Snow,Light Snow,230,2013-12-22 21:51:00
3:58 PM,28.4,21.2,74,30.06,10.0,SW,8.1,-,N/A,,Mostly Cloudy,220,2013-12-22 22:58:00
4:52 PM,28.4,19.4,69,30.07,10.0,SSW,10.4,-,N/A,,Mostly Cloudy,210,2013-12-22 23:52:00
5:53 PM,28.4,19.4,69,30.08,10.0,SW,9.2,-,N/A,,Mostly Cloudy,230,2013-12-23 00:53:00
7:53 PM,28.4,21.2,74,30.12,10.0,SSW,8.1,-,N/A,,Mostly Cloudy,200,2013-12-23 02:53:00
8:55 PM,28.4,21.2,74,30.14,10.0,SSW,4.6,-,N/A,,Overcast,200,2013-12-23 03:55:00
9:15 PM,28.4,21.2,74,30.15,10.0,SW,5.8,-,N/A,,Overcast,230,2013-12-23 04:15:00
9:35 PM,28.4,21.2,74,30.15,10.0,South,9.2,-,N/A,,Overcast,180,2013-12-23 04:35:00
9:55 PM,28.4,21.2,74,30.15,10.0,South,6.9,-,N/A,,Overcast,190,2013-12-23 04:55:00
10:35 PM,28.4,21.2,74,30.16,10.0,SSW,10.4,-,N/A,,Overcast,200,2013-12-23 05:35:00
10:55 PM,28.4,21.2,74,30.17,10.0,SSW,11.5,-,N/A,,Overcast,210,2013-12-23 05:55:00
11:15 PM,28.4,21.2,74,30.18,10.0,SSW,9.2,-,N/A,,Overcast,210,2013-12-23 06:15:00
11:35 PM,28.4,21.2,74,30.19,10.0,SSW,5.8,-,N/A,,Overcast,200,2013-12-23 06:35:00